Time,TemperatureF,DewpointF,PressureIn,WindDirection,WindDirectionDegrees,WindSpeedMPH,WindSpeedGustMPH,Humidity,HourlyPrecipIn,Conditions,Clouds,dailyrainin,SoftwareType,DateUTC
2013-01-15 00:00:00,67.1,53.2,30.06,South,191,0.0,0.0,61,0.00,,---,0.00,VWS V14.01,2013-01-15 05:00:00,
2013-01-15 00:01:00,67.1,53.2,30.06,South,191,0.0,0.0,61,0.00,,---,0.00,VWS V14.01,2013-01-15 05:01:00,
2013-01-15 00:06:00,67.1,54.1,30.06,South,191,0.0,0.0,63,0.00,,---,0.00,VWS V14.01,2013-01-15 05:06:00,
2013-01-15 00:11:00,67.1,54.1,30.06,South,191,0.0,0.0,63,0.00,,---,0.00,VWS V14.01,2013-01-15 05:11:00,
2013-01-15 00:16:00,66.9,53.9,30.06,South,191,0.0,0.0,63,0.00,,---,0.00,VWS V14.01,2013-01-15 05:16:00,
2013-01-15 00:21:00,66.7,54.2,30.06,South,191,0.0,0.0,64,0.00,,---,0.00,VWS V14.01,2013-01-15 05:21:00,
2013-01-15 00:26:00,66.7,54.7,30.06,South,191,0.0,0.0,65,0.00,,---,0.00,VWS V14.01,2013-01-15 05:26:00,
2013-01-15 00:31:00,66.7,54.7,30.06,South,191,0.0,0.0,65,0.00,,---,0.00,VWS V14.01,2013-01-15 05:31:00,
2013-01-15 00:36:00,66.6,54.5,30.06,SSW,192,0.0,0.0,65,0.00,,---,0.00,VWS V14.01,2013-01-15 05:36:00,
2013-01-15 00:41:00,66.4,55.2,30.06,South,191,0.0,0.0,67,0.00,,---,0.00,VWS V14.01,2013-01-15 05:41:00,
2013-01-15 00:47:00,66.4,55.2,30.06,South,191,0.0,0.0,67,0.00,,---,0.00,VWS V14.01,2013-01-15 05:47:00,
2013-01-15 00:52:00,66.2,55.4,30.06,South,191,0.0,0.0,68,0.00,,---,0.00,VWS V14.01,2013-01-15 05:52:00,
2013-01-15 00:56:00,66.2,55.4,30.06,South,191,0.0,0.0,68,0.00,,---,0.00,VWS V14.01,2013-01-15 05:56:00,
2013-01-15 01:01:00,66.2,55.9,30.06,South,191,0.0,0.0,69,0.00,,---,0.00,VWS V14.01,2013-01-15 06:01:00,
2013-01-15 01:06:00,66.2,55.9,30.06,South,191,0.0,0.0,69,0.00,,---,0.00,VWS V14.01,2013-01-15 06:06:00,
2013-01-15 01:11:00,66.4,56.5,30.06,South,191,0.0,0.0,70,0.00,,---,0.00,VWS V14.01,2013-01-15 06:11:00,
2013-01-15 01:16:00,66.4,56.9,30.06,South,191,3.1,3.1,71,0.00,,---,0.00,VWS V14.01,2013-01-15 06:16:00,
2013-01-15 01:21:00,66.6,57.0,30.06,South,191,0.0,0.0,71,0.00,,---,0.00,VWS V14.01,2013-01-15 06:21:00,
2013-01-15 01:26:00,66.6,56.6,30.06,SSW,193,0.0,0.0,70,0.00,,---,0.00,VWS V14.01,2013-01-15 06:26:00,
2013-01-15 01:31:00,66.7,57.2,30.06,South,191,0.0,3.6,71,0.00,,---,0.00,VWS V14.01,2013-01-15 06:31:00,
2013-01-15 01:36:00,66.9,57.0,30.06,South,191,2.2,4.0,70,0.00,,---,0.00,VWS V14.01,2013-01-15 06:36:00,
2013-01-15 01:41:00,67.1,57.1,30.06,SSW,195,0.0,3.1,70,0.00,,---,0.00,VWS V14.01,2013-01-15 06:41:00,
2013-01-15 01:47:00,67.1,57.1,30.06,South,172,4.0,4.0,70,0.00,,---,0.00,VWS V14.01,2013-01-15 06:47:00,
2013-01-15 01:52:00,67.1,56.7,30.06,South,189,2.2,3.1,69,0.00,,---,0.00,VWS V14.01,2013-01-15 06:52:00,
2013-01-15 01:57:00,67.1,57.1,30.06,SSW,208,0.0,0.0,70,0.00,,---,0.00,VWS V14.01,2013-01-15 06:57:00,
2013-01-15 02:02:00,67.1,57.5,30.06,SSW,197,0.0,3.1,71,0.00,,---,0.00,VWS V14.01,2013-01-15 07:02:00,
2013-01-15 02:07:00,66.9,57.4,30.06,South,190,3.1,4.9,71,0.00,,---,0.00,VWS V14.01,2013-01-15 07:07:00,
2013-01-15 02:12:00,66.9,57.4,30.06,SSW,195,2.7,2.7,71,0.00,,---,0.00,VWS V14.01,2013-01-15 07:12:00,
2013-01-15 02:17:00,66.9,57.4,30.06,SSW,195,0.0,0.0,71,0.00,,---,0.00,VWS V14.01,2013-01-15 07:17:00,
2013-01-15 02:22:00,66.7,57.2,30.03,SSW,194,0.0,2.7,71,0.00,,---,0.00,VWS V14.01,2013-01-15 07:22:00,
2013-01-15 02:27:00,66.6,57.4,30.03,SSW,195,0.0,0.0,72,0.00,,---,0.00,VWS V14.01,2013-01-15 07:27:00,
2013-01-15 02:32:00,66.4,57.3,30.03,South,172,0.0,2.7,72,0.00,,---,0.00,VWS V14.01,2013-01-15 07:32:00,
2013-01-15 02:37:00,66.2,57.5,30.03,South,172,0.0,0.0,74,0.00,,---,0.00,VWS V14.01,2013-01-15 07:37:00,
2013-01-15 02:42:00,66.0,57.7,30.03,South,172,0.0,0.0,75,0.00,,---,0.00,VWS V14.01,2013-01-15 07:42:00,
2013-01-15 02:47:00,66.0,58.5,30.03,South,173,0.0,4.0,77,0.00,,---,0.00,VWS V14.01,2013-01-15 07:47:00,
2013-01-15 02:52:00,65.8,58.3,30.03,South,181,0.0,3.1,77,0.00,,---,0.00,VWS V14.01,2013-01-15 07:52:00,
2013-01-15 02:57:00,65.7,58.9,30.03,South,181,0.0,0.0,79,0.00,,---,0.00,VWS V14.01,2013-01-15 07:57:00,
2013-01-15 03:02:00,66.0,60.7,30.03,SSE,164,4.9,8.7,83,0.00,,---,0.00,VWS V14.01,2013-01-15 08:02:00,
2013-01-15 03:07:00,66.4,60.3,30.03,SSW,194,3.6,4.0,81,0.00,,---,0.00,VWS V14.01,2013-01-15 08:07:00,
2013-01-15 03:12:00,66.7,59.9,30.03,SSE,163,5.4,5.4,79,0.00,,---,0.00,VWS V14.01,2013-01-15 08:12:00,
2013-01-15 03:17:00,66.9,59.4,30.03,South,172,3.6,3.6,77,0.00,,---,0.00,VWS V14.01,2013-01-15 08:17:00,
2013-01-15 03:22:00,67.1,59.5,30.03,SSE,168,3.1,4.9,77,0.00,,---,0.00,VWS V14.01,2013-01-15 08:22:00,
2013-01-15 03:27:00,67.1,59.5,30.03,South,185,0.0,0.0,77,0.00,,---,0.00,VWS V14.01,2013-01-15 08:27:00,
2013-01-15 03:32:00,67.1,59.1,30.03,SSE,150,4.0,5.4,76,0.00,,---,0.00,VWS V14.01,2013-01-15 08:32:00,
2013-01-15 03:37:00,67.1,59.1,30.03,South,183,0.0,4.5,76,0.00,,---,0.00,VWS V14.01,2013-01-15 08:37:00,
2013-01-15 03:42:00,66.7,59.2,30.03,SSE,164,2.2,5.4,77,0.00,,---,0.00,VWS V14.01,2013-01-15 08:42:00,
2013-01-15 03:47:00,66.7,59.2,30.03,SSE,166,0.0,3.6,77,0.00,,---,0.00,VWS V14.01,2013-01-15 08:47:00,
2013-01-15 03:52:00,66.4,59.2,30.03,SSE,165,2.2,3.6,78,0.00,,---,0.00,VWS V14.01,2013-01-15 08:52:00,
2013-01-15 03:57:00,66.4,59.2,30.03,SSE,166,0.0,2.2,78,0.00,,---,0.00,VWS V14.01,2013-01-15 08:57:00,
2013-01-15 04:02:00,66.0,59.2,30.03,SSE,166,0.0,0.0,79,0.00,,---,0.00,VWS V14.01,2013-01-15 09:02:00,
2013-01-15 04:07:00,65.8,59.8,30.03,SSE,166,0.0,0.0,81,0.00,,---,0.00,VWS V14.01,2013-01-15 09:07:00,
2013-01-15 04:12:00,65.7,60.0,30.03,SSE,166,0.0,0.0,82,0.00,,---,0.00,VWS V14.01,2013-01-15 09:12:00,
2013-01-15 04:17:00,65.5,59.8,30.03,SSE,166,0.0,0.0,82,0.00,,---,0.00,VWS V14.01,2013-01-15 09:17:00,
2013-01-15 04:22:00,65.5,60.5,30.03,SSW,192,3.6,5.4,84,0.00,,---,0.00,VWS V14.01,2013-01-15 09:22:00,
2013-01-15 04:27:00,65.7,61.0,30.03,South,173,0.0,0.0,85,0.00,,---,0.00,VWS V14.01,2013-01-15 09:27:00,
2013-01-15 04:32:00,65.5,60.9,30.03,SSE,162,0.0,2.2,85,0.00,,---,0.00,VWS V14.01,2013-01-15 09:32:00,
2013-01-15 04:37:00,65.7,61.0,30.00,South,186,0.0,0.0,85,0.00,,---,0.00,VWS V14.01,2013-01-15 09:37:00,
2013-01-15 04:42:00,65.8,61.2,30.00,South,175,0.0,0.0,85,0.00,,---,0.00,VWS V14.01,2013-01-15 09:42:00,
2013-01-15 04:47:00,65.8,61.2,30.00,South,177,0.0,0.0,85,0.00,,---,0.00,VWS V14.01,2013-01-15 09:47:00,
2013-01-15 04:52:00,65.8,61.2,30.00,SSE,157,0.0,0.0,85,0.00,,---,0.00,VWS V14.01,2013-01-15 09:52:00,
2013-01-15 04:57:00,65.8,61.2,30.00,SSE,165,0.0,0.0,85,0.00,,---,0.00,VWS V14.01,2013-01-15 09:57:00,
2013-01-15 05:02:00,65.8,61.6,30.00,SSE,165,0.0,0.0,86,0.00,,---,0.00,VWS V14.01,2013-01-15 10:02:00,
2013-01-15 05:07:00,65.8,61.6,30.00,SSE,158,0.0,0.0,86,0.00,,---,0.00,VWS V14.01,2013-01-15 10:07:00,
2013-01-15 05:12:00,65.8,61.6,30.00,South,173,0.0,0.0,86,0.00,,---,0.00,VWS V14.01,2013-01-15 10:12:00,
2013-01-15 05:17:00,65.7,61.7,30.00,SSE,160,0.0,0.0,87,0.00,,---,0.00,VWS V14.01,2013-01-15 10:17:00,
2013-01-15 05:22:00,65.7,61.7,30.00,SSE,156,2.2,4.5,87,0.00,,---,0.00,VWS V14.01,2013-01-15 10:22:00,
2013-01-15 05:27:00,65.8,61.9,30.00,SSE,156,2.2,2.2,87,0.00,,---,0.00,VWS V14.01,2013-01-15 10:27:00,
2013-01-15 05:32:00,65.7,61.7,30.00,SSE,156,0.0,0.0,87,0.00,,---,0.00,VWS V14.01,2013-01-15 10:32:00,
2013-01-15 05:37:00,65.7,61.4,30.00,SSE,156,0.0,0.0,86,0.00,,---,0.00,VWS V14.01,2013-01-15 10:37:00,
2013-01-15 05:42:00,65.5,61.2,30.00,SSE,156,0.0,0.0,86,0.00,,---,0.00,VWS V14.01,2013-01-15 10:42:00,
2013-01-15 05:47:00,65.3,61.4,30.00,SSE,156,0.0,0.0,87,0.00,,---,0.00,VWS V14.01,2013-01-15 10:47:00,
2013-01-15 05:52:00,65.1,61.2,30.00,SSE,156,0.0,0.0,87,0.00,,---,0.00,VWS V14.01,2013-01-15 10:52:00,
2013-01-15 05:57:00,65.1,61.2,30.00,SSE,156,0.0,0.0,87,0.00,,---,0.00,VWS V14.01,2013-01-15 10:57:00,
2013-01-15 06:02:00,65.1,61.2,30.00,SSE,168,0.0,0.0,87,0.00,,---,0.00,VWS V14.01,2013-01-15 11:02:00,
2013-01-15 06:07:00,65.1,61.5,30.00,SSE,152,3.1,3.1,88,0.00,,---,0.00,VWS V14.01,2013-01-15 11:07:00,
2013-01-15 06:12:00,65.3,61.7,30.00,SSE,152,3.6,3.6,88,0.00,,---,0.00,VWS V14.01,2013-01-15 11:12:00,
2013-01-15 06:17:00,65.3,61.7,30.00,SSE,152,0.0,0.0,88,0.00,,---,0.00,VWS V14.01,2013-01-15 11:17:00,
2013-01-15 06:22:00,65.1,61.5,30.00,SSE,152,0.0,0.0,88,0.00,,---,0.00,VWS V14.01,2013-01-15 11:22:00,
2013-01-15 06:27:00,65.1,61.5,30.00,SSE,152,0.0,0.0,88,0.00,,---,0.00,VWS V14.01,2013-01-15 11:27:00,
2013-01-15 06:32:00,64.9,61.4,30.00,SSE,152,0.0,0.0,88,0.00,,---,0.00,VWS V14.01,2013-01-15 11:32:00,
2013-01-15 06:37:00,64.9,61.4,30.00,SSE,152,0.0,0.0,88,0.00,,---,0.00,VWS V14.01,2013-01-15 11:37:00,
2013-01-15 06:42:00,64.8,61.2,30.00,SSE,152,0.0,0.0,88,0.00,,---,0.00,VWS V14.01,2013-01-15 11:42:00,
2013-01-15 06:47:00,64.8,61.9,30.00,SSE,152,0.0,0.0,90,0.00,,---,0.00,VWS V14.01,2013-01-15 11:47:00,
2013-01-15 06:52:00,64.8,61.9,30.00,SSE,152,0.0,0.0,90,0.00,,---,0.00,VWS V14.01,2013-01-15 11:52:00,
2013-01-15 06:57:00,64.6,61.3,30.00,SSE,152,0.0,0.0,89,0.00,,---,0.00,VWS V14.01,2013-01-15 11:57:00,
2013-01-15 07:02:00,64.4,61.5,30.00,SSE,152,0.0,0.0,90,0.00,,---,0.00,VWS V14.01,2013-01-15 12:02:00,
2013-01-15 07:07:00,64.4,61.5,30.03,SSE,152,0.0,0.0,90,0.00,,---,0.00,VWS V14.01,2013-01-15 12:07:00,
2013-01-15 07:12:00,64.2,61.3,30.03,SSE,152,0.0,0.0,90,0.00,,---,0.00,VWS V14.01,2013-01-15 12:12:00,
2013-01-15 07:17:00,64.2,61.3,30.03,SSE,152,0.0,2.2,90,0.00,,---,0.00,VWS V14.01,2013-01-15 12:17:00,
2013-01-15 07:22:00,64.2,61.3,30.03,SSE,152,0.0,0.0,90,0.00,,---,0.00,VWS V14.01,2013-01-15 12:22:00,
2013-01-15 07:27:00,64.2,61.7,30.03,SSE,152,0.0,0.0,91,0.00,,---,0.00,VWS V14.01,2013-01-15 12:27:00,
2013-01-15 07:32:00,64.2,61.7,30.03,SSE,152,0.0,0.0,91,0.00,,---,0.00,VWS V14.01,2013-01-15 12:32:00,
2013-01-15 07:37:00,64.2,61.7,30.03,SSE,152,0.0,0.0,91,0.00,,---,0.00,VWS V14.01,2013-01-15 12:37:00,
2013-01-15 07:42:00,64.2,61.7,30.03,SSE,152,0.0,0.0,91,0.00,,---,0.00,VWS V14.01,2013-01-15 12:42:00,
2013-01-15 07:47:00,64.4,61.8,30.03,SSE,154,0.0,0.0,91,0.00,,---,0.00,VWS V14.01,2013-01-15 12:47:00,
2013-01-15 07:52:00,64.6,62.0,30.03,SSE,155,0.0,0.0,91,0.00,,---,0.00,VWS V14.01,2013-01-15 12:52:00,
2013-01-15 07:57:00,64.9,62.7,30.03,SSE,161,0.0,0.0,92,0.00,,---,0.00,VWS V14.01,2013-01-15 12:57:00,
2013-01-15 08:02:00,65.5,63.5,30.03,SSE,161,0.0,0.0,93,0.00,,---,0.00,VWS V14.01,2013-01-15 13:02:00,
2013-01-15 08:07:00,66.0,64.1,30.03,South,184,0.0,0.0,93,0.00,,---,0.00,VWS V14.01,2013-01-15 13:07:00,
2013-01-15 08:12:00,66.4,64.4,30.03,South,178,0.0,0.0,93,0.00,,---,0.00,VWS V14.01,2013-01-15 13:12:00,
2013-01-15 08:17:00,66.7,64.1,30.03,SSE,165,0.0,0.0,91,0.00,,---,0.00,VWS V14.01,2013-01-15 13:17:00,
2013-01-15 08:22:00,66.9,64.0,30.03,South,177,0.0,0.0,90,0.00,,---,0.00,VWS V14.01,2013-01-15 13:22:00,
2013-01-15 08:27:00,67.3,63.7,30.03,South,191,0.0,0.0,88,0.00,,---,0.00,VWS V14.01,2013-01-15 13:27:00,
2013-01-15 08:32:00,67.5,62.8,30.03,South,178,0.0,3.1,85,0.00,,---,0.00,VWS V14.01,2013-01-15 13:32:00,
2013-01-15 08:37:00,68.2,63.2,30.06,SSE,168,0.0,0.0,84,0.00,,---,0.00,VWS V14.01,2013-01-15 13:37:00,
2013-01-15 08:42:00,68.9,62.0,30.06,South,188,0.0,0.0,79,0.00,,---,0.00,VWS V14.01,2013-01-15 13:42:00,
2013-01-15 08:47:00,69.6,60.0,30.06,SSE,165,0.0,0.0,71,0.00,,---,0.00,VWS V14.01,2013-01-15 13:47:00,
2013-01-15 08:52:00,71.1,58.8,30.06,South,180,0.0,0.0,65,0.00,,---,0.00,VWS V14.01,2013-01-15 13:52:00,
2013-01-15 08:57:00,72.5,56.3,30.06,South,186,0.0,0.0,57,0.00,,---,0.00,VWS V14.01,2013-01-15 13:57:00,
2013-01-15 09:02:00,73.0,55.7,30.06,SSW,195,0.0,0.0,55,0.00,,---,0.00,VWS V14.01,2013-01-15 14:02:00,
2013-01-15 09:07:00,73.6,54.0,30.06,SSW,192,0.0,0.0,50,0.00,,---,0.00,VWS V14.01,2013-01-15 14:07:00,
2013-01-15 09:12:00,73.4,54.4,30.06,SSE,164,2.7,2.7,51,0.00,,---,0.00,VWS V14.01,2013-01-15 14:12:00,
2013-01-15 09:17:00,72.9,55.6,30.06,SSW,192,6.7,6.7,55,0.00,,---,0.00,VWS V14.01,2013-01-15 14:17:00,
2013-01-15 09:22:00,72.5,56.3,30.06,South,181,5.8,6.7,57,0.00,,---,0.00,VWS V14.01,2013-01-15 14:22:00,
2013-01-15 09:27:00,72.7,55.9,30.06,SSE,168,3.6,5.4,56,0.00,,---,0.00,VWS V14.01,2013-01-15 14:27:00,
2013-01-15 09:32:00,72.7,55.9,30.06,WSW,244,7.6,7.6,56,0.00,,---,0.00,VWS V14.01,2013-01-15 14:32:00,
2013-01-15 09:37:00,73.0,55.7,30.06,SSW,193,5.4,5.4,55,0.00,,---,0.00,VWS V14.01,2013-01-15 14:37:00,
2013-01-15 09:42:00,73.2,54.8,30.06,South,183,4.0,5.8,52,0.00,,---,0.00,VWS V14.01,2013-01-15 14:42:00,
2013-01-15 09:47:00,72.5,55.8,30.06,SSW,196,5.8,6.3,56,0.00,,---,0.00,VWS V14.01,2013-01-15 14:47:00,
2013-01-15 09:52:00,72.1,55.9,30.06,SSE,167,3.1,4.9,57,0.00,,---,0.00,VWS V14.01,2013-01-15 14:52:00,
2013-01-15 09:57:00,71.8,56.6,30.06,SSE,168,10.1,10.1,59,0.00,,---,0.00,VWS V14.01,2013-01-15 14:57:00,
2013-01-15 10:02:00,71.2,56.6,30.06,South,189,5.4,5.4,60,0.00,,---,0.00,VWS V14.01,2013-01-15 15:02:00,
2013-01-15 10:07:00,71.4,56.3,30.06,SE,144,4.0,5.4,59,0.00,,---,0.00,VWS V14.01,2013-01-15 15:07:00,
2013-01-15 10:12:00,71.6,55.9,30.06,SSW,208,5.8,5.8,58,0.00,,---,0.00,VWS V14.01,2013-01-15 15:12:00,
2013-01-15 10:17:00,72.0,55.2,30.06,South,188,4.0,4.0,56,0.00,,---,0.00,VWS V14.01,2013-01-15 15:17:00,
2013-01-15 10:22:00,72.1,54.4,30.06,South,178,8.1,8.1,54,0.00,,---,0.00,VWS V14.01,2013-01-15 15:22:00,
2013-01-15 10:27:00,72.1,54.9,30.06,SSW,192,5.8,7.6,55,0.00,,---,0.00,VWS V14.01,2013-01-15 15:27:00,
2013-01-15 10:32:00,72.5,55.2,30.06,SSE,160,3.1,4.0,55,0.00,,---,0.00,VWS V14.01,2013-01-15 15:32:00,
2013-01-15 10:37:00,73.0,55.2,30.06,ENE,78,5.8,5.8,54,0.00,,---,0.00,VWS V14.01,2013-01-15 15:37:00,
2013-01-15 10:42:00,73.4,53.9,30.06,South,177,7.6,8.7,50,0.00,,---,0.00,VWS V14.01,2013-01-15 15:42:00,
2013-01-15 10:47:00,73.6,54.0,30.06,SSE,150,3.6,4.9,50,0.00,,---,0.00,VWS V14.01,2013-01-15 15:47:00,
2013-01-15 10:52:00,73.8,54.2,30.03,SSW,201,4.0,4.9,50,0.00,,---,0.00,VWS V14.01,2013-01-15 15:52:00,
2013-01-15 10:57:00,74.5,52.5,30.03,SSW,198,8.7,8.7,46,0.00,,---,0.00,VWS V14.01,2013-01-15 15:57:00,
2013-01-15 11:02:00,74.1,52.8,30.03,SSW,212,3.6,6.3,47,0.00,,---,0.00,VWS V14.01,2013-01-15 16:02:00,
2013-01-15 11:07:00,74.5,53.1,30.03,SSW,206,5.4,5.4,47,0.00,,---,0.00,VWS V14.01,2013-01-15 16:07:00,
2013-01-15 11:12:00,74.5,53.1,30.03,South,174,5.4,5.4,47,0.00,,---,0.00,VWS V14.01,2013-01-15 16:12:00,
2013-01-15 11:17:00,74.5,52.5,30.03,SSW,200,6.3,6.7,46,0.00,,---,0.00,VWS V14.01,2013-01-15 16:17:00,
2013-01-15 11:22:00,74.7,52.7,30.03,SSW,196,3.1,5.4,46,0.00,,---,0.00,VWS V14.01,2013-01-15 16:22:00,
2013-01-15 11:27:00,75.2,52.5,30.03,SSW,211,3.6,4.0,45,0.00,,---,0.00,VWS V14.01,2013-01-15 16:27:00,
2013-01-15 11:32:00,75.4,52.0,30.03,SSW,193,7.6,7.6,44,0.00,,---,0.00,VWS V14.01,2013-01-15 16:32:00,
2013-01-15 11:37:00,75.6,52.2,30.03,South,178,3.6,6.3,44,0.00,,---,0.00,VWS V14.01,2013-01-15 16:37:00,
2013-01-15 11:42:00,75.9,51.2,30.03,South,180,5.8,6.3,42,0.00,,---,0.00,VWS V14.01,2013-01-15 16:42:00,
2013-01-15 11:47:00,76.3,52.2,30.03,SW,234,5.4,5.4,43,0.00,,---,0.00,VWS V14.01,2013-01-15 16:47:00,
2013-01-15 11:52:00,76.3,52.2,30.00,SSW,207,5.4,5.4,43,0.00,,---,0.00,VWS V14.01,2013-01-15 16:52:00,
2013-01-15 11:57:00,76.6,52.5,30.00,SSE,159,0.0,2.2,43,0.00,,---,0.00,VWS V14.01,2013-01-15 16:57:00,
2013-01-15 12:02:00,77.2,51.7,30.00,SSW,203,4.0,4.0,41,0.00,,---,0.00,VWS V14.01,2013-01-15 17:02:00,
2013-01-15 12:07:00,77.4,49.7,30.00,SSW,213,3.1,3.6,38,0.00,,---,0.00,VWS V14.01,2013-01-15 17:07:00,
2013-01-15 12:12:00,77.5,50.5,30.00,SSE,157,5.4,8.1,39,0.00,,---,0.00,VWS V14.01,2013-01-15 17:12:00,
2013-01-15 12:17:00,78.1,49.5,30.00,South,189,3.6,4.0,37,0.00,,---,0.00,VWS V14.01,2013-01-15 17:17:00,
2013-01-15 12:22:00,78.6,50.0,30.00,South,180,3.1,3.1,37,0.00,,---,0.00,VWS V14.01,2013-01-15 17:22:00,
2013-01-15 12:27:00,79.9,49.5,30.00,South,170,4.9,4.9,35,0.00,,---,0.00,VWS V14.01,2013-01-15 17:27:00,
2013-01-15 12:32:00,80.4,49.2,30.00,SSE,150,6.3,6.3,34,0.00,,---,0.00,VWS V14.01,2013-01-15 17:32:00,
2013-01-15 12:37:00,80.6,48.5,30.00,South,180,6.3,8.7,33,0.00,,---,0.00,VWS V14.01,2013-01-15 17:37:00,
2013-01-15 12:42:00,80.8,48.7,30.00,SSW,200,6.3,6.3,33,0.00,,---,0.00,VWS V14.01,2013-01-15 17:42:00,
2013-01-15 12:47:00,81.0,47.9,30.00,SW,225,4.0,4.0,31,0.00,,---,0.00,VWS V14.01,2013-01-15 17:47:00,
2013-01-15 12:52:00,82.6,48.4,29.97,SSE,160,3.1,4.9,30,0.00,,---,0.00,VWS V14.01,2013-01-15 17:52:00,
2013-01-15 12:57:00,83.3,46.2,29.97,South,191,8.3,10.1,27,0.00,,---,0.00,VWS V14.01,2013-01-15 17:57:00,
2013-01-15 13:02:00,85.5,45.9,29.97,South,169,3.6,3.6,25,0.00,,---,0.00,VWS V14.01,2013-01-15 18:02:00,
2013-01-15 13:07:00,88.2,44.6,29.97,South,179,5.4,5.4,22,0.00,,---,0.00,VWS V14.01,2013-01-15 18:07:00,
2013-01-15 13:12:00,86.4,43.1,29.97,SSW,197,5.8,6.3,22,0.00,,---,0.00,VWS V14.01,2013-01-15 18:12:00,
2013-01-15 13:17:00,84.9,44.3,29.97,South,183,5.8,5.8,24,0.00,,---,0.00,VWS V14.01,2013-01-15 18:17:00,
2013-01-15 13:22:00,86.5,42.0,29.97,SW,218,6.3,7.6,21,0.00,,---,0.00,VWS V14.01,2013-01-15 18:22:00,
2013-01-15 13:27:00,83.8,43.4,29.97,SSE,152,3.6,3.6,24,0.00,,---,0.00,VWS V14.01,2013-01-15 18:27:00,
2013-01-15 13:32:00,81.5,46.6,29.97,SSE,167,12.8,12.8,29,0.00,,---,0.00,VWS V14.01,2013-01-15 18:32:00,
2013-01-15 13:37:00,80.4,47.5,29.97,SE,133,5.4,5.4,31,0.00,,---,0.00,VWS V14.01,2013-01-15 18:37:00,
2013-01-15 13:42:00,79.9,47.0,29.97,South,182,4.0,4.0,31,0.00,,---,0.00,VWS V14.01,2013-01-15 18:42:00,
2013-01-15 13:47:00,79.9,47.0,29.97,SSE,168,8.3,8.7,31,0.00,,---,0.00,VWS V14.01,2013-01-15 18:47:00,
2013-01-15 13:52:00,79.5,46.7,29.97,SSE,158,5.8,5.8,31,0.00,,---,0.00,VWS V14.01,2013-01-15 18:52:00,
2013-01-15 13:57:00,79.3,46.5,29.97,SSW,192,6.3,6.3,31,0.00,,---,0.00,VWS V14.01,2013-01-15 18:57:00,
2013-01-15 14:02:00,79.5,46.7,29.97,SSW,193,2.7,4.9,31,0.00,,---,0.00,VWS V14.01,2013-01-15 19:02:00,
2013-01-15 14:07:00,79.5,46.7,29.97,East,92,4.0,4.0,31,0.00,,---,0.00,VWS V14.01,2013-01-15 19:07:00,
2013-01-15 14:12:00,79.5,46.7,29.97,SSW,209,5.4,5.4,31,0.00,,---,0.00,VWS V14.01,2013-01-15 19:12:00,
2013-01-15 14:17:00,79.5,46.7,29.97,South,174,4.0,6.3,31,0.00,,---,0.00,VWS V14.01,2013-01-15 19:17:00,
2013-01-15 14:22:00,79.7,46.8,29.97,South,170,3.1,3.1,31,0.00,,---,0.00,VWS V14.01,2013-01-15 19:22:00,
2013-01-15 14:27:00,79.5,46.7,29.97,SE,140,4.9,6.3,31,0.00,,---,0.00,VWS V14.01,2013-01-15 19:27:00,
2013-01-15 14:32:00,79.0,46.2,29.97,SSW,210,6.3,7.6,31,0.00,,---,0.00,VWS V14.01,2013-01-15 19:32:00,
2013-01-15 14:37:00,79.0,46.2,29.94,SSE,161,3.6,4.9,31,0.00,,---,0.00,VWS V14.01,2013-01-15 19:37:00,
2013-01-15 14:42:00,79.2,46.4,29.94,SSE,159,7.6,7.6,31,0.00,,---,0.00,VWS V14.01,2013-01-15 19:42:00,
2013-01-15 14:47:00,79.2,46.4,29.94,South,174,5.4,5.4,31,0.00,,---,0.00,VWS V14.01,2013-01-15 19:47:00,
2013-01-15 14:52:00,79.2,46.4,29.94,SSW,208,4.9,4.9,31,0.00,,---,0.00,VWS V14.01,2013-01-15 19:52:00,
2013-01-15 14:57:00,79.2,46.4,29.94,South,178,4.0,4.0,31,0.00,,---,0.00,VWS V14.01,2013-01-15 19:57:00,
2013-01-15 15:02:00,79.2,46.4,29.94,SSE,165,8.7,8.7,31,0.00,,---,0.00,VWS V14.01,2013-01-15 20:02:00,
2013-01-15 15:07:00,79.2,46.4,29.94,South,175,6.3,6.3,31,0.00,,---,0.00,VWS V14.01,2013-01-15 20:07:00,
2013-01-15 15:12:00,79.3,45.6,29.94,South,170,6.3,7.6,30,0.00,,---,0.00,VWS V14.01,2013-01-15 20:12:00,
2013-01-15 15:17:00,79.2,46.4,29.94,SSE,148,5.4,5.4,31,0.00,,---,0.00,VWS V14.01,2013-01-15 20:17:00,
2013-01-15 15:22:00,79.0,46.2,29.94,West,264,2.7,2.7,31,0.00,,---,0.00,VWS V14.01,2013-01-15 20:22:00,
2013-01-15 15:27:00,79.0,46.2,29.94,South,176,5.4,8.7,31,0.00,,---,0.00,VWS V14.01,2013-01-15 20:27:00,
2013-01-15 15:32:00,78.8,46.1,29.94,SSW,208,5.8,5.8,31,0.00,,---,0.00,VWS V14.01,2013-01-15 20:32:00,
2013-01-15 15:37:00,78.8,46.1,29.94,South,182,3.1,6.3,31,0.00,,---,0.00,VWS V14.01,2013-01-15 20:37:00,
2013-01-15 15:42:00,78.8,46.1,29.94,SSW,205,6.3,6.3,31,0.00,,---,0.00,VWS V14.01,2013-01-15 20:42:00,
2013-01-15 15:47:00,78.6,45.9,29.94,SSW,209,5.4,5.4,31,0.00,,---,0.00,VWS V14.01,2013-01-15 20:47:00,
2013-01-15 15:52:00,78.4,45.8,29.94,South,179,6.3,6.3,31,0.00,,---,0.00,VWS V14.01,2013-01-15 20:52:00,
2013-01-15 15:57:00,78.6,45.9,29.94,SSW,199,3.6,5.8,31,0.00,,---,0.00,VWS V14.01,2013-01-15 20:57:00,
2013-01-15 16:02:00,78.4,45.8,29.94,SSW,201,6.3,6.7,31,0.00,,---,0.00,VWS V14.01,2013-01-15 21:02:00,
2013-01-15 16:07:00,78.4,45.8,29.94,SSE,168,5.8,6.3,31,0.00,,---,0.00,VWS V14.01,2013-01-15 21:07:00,
2013-01-15 16:12:00,78.3,45.6,29.94,SSW,192,5.8,7.6,31,0.00,,---,0.00,VWS V14.01,2013-01-15 21:12:00,
2013-01-15 16:17:00,78.1,45.4,29.94,SSE,164,4.5,4.9,31,0.00,,---,0.00,VWS V14.01,2013-01-15 21:17:00,
2013-01-15 16:22:00,77.9,45.3,29.94,SE,140,5.4,8.3,31,0.00,,---,0.00,VWS V14.01,2013-01-15 21:22:00,
2013-01-15 16:27:00,77.9,45.3,29.94,SSE,166,4.9,5.4,31,0.00,,---,0.00,VWS V14.01,2013-01-15 21:27:00,
2013-01-15 16:32:00,77.9,45.3,29.94,SSE,168,6.3,6.3,31,0.00,,---,0.00,VWS V14.01,2013-01-15 21:32:00,
2013-01-15 16:37:00,77.7,45.1,29.97,SSW,210,3.6,5.8,31,0.00,,---,0.00,VWS V14.01,2013-01-15 21:37:00,
2013-01-15 16:42:00,77.7,45.1,29.97,South,180,5.4,5.4,31,0.00,,---,0.00,VWS V14.01,2013-01-15 21:42:00,
2013-01-15 16:47:00,77.4,45.7,29.97,SSE,151,2.7,3.6,33,0.00,,---,0.00,VWS V14.01,2013-01-15 21:47:00,
2013-01-15 16:52:00,77.2,45.5,29.97,South,185,4.0,4.0,33,0.00,,---,0.00,VWS V14.01,2013-01-15 21:52:00,
2013-01-15 16:57:00,77.0,45.4,29.97,South,177,0.0,0.0,33,0.00,,---,0.00,VWS V14.01,2013-01-15 21:57:00,
2013-01-15 17:02:00,76.6,49.0,29.97,SSE,165,2.2,4.9,38,0.00,,---,0.00,VWS V14.01,2013-01-15 22:02:00,
2013-01-15 17:07:00,76.1,50.0,29.97,SSE,159,2.2,4.9,40,0.00,,---,0.00,VWS V14.01,2013-01-15 22:07:00,
2013-01-15 17:12:00,75.7,50.4,29.97,ENE,64,0.0,0.0,41,0.00,,---,0.00,VWS V14.01,2013-01-15 22:12:00,
2013-01-15 17:17:00,75.2,50.6,29.97,SSE,155,0.0,0.0,42,0.00,,---,0.00,VWS V14.01,2013-01-15 22:17:00,
2013-01-15 17:22:00,75.0,51.1,29.97,SSW,192,2.7,2.7,43,0.00,,---,0.00,VWS V14.01,2013-01-15 22:22:00,
2013-01-15 17:27:00,74.8,50.9,29.97,South,173,0.0,0.0,43,0.00,,---,0.00,VWS V14.01,2013-01-15 22:27:00,
2013-01-15 17:32:00,74.5,50.6,29.97,East,98,0.0,0.0,43,0.00,,---,0.00,VWS V14.01,2013-01-15 22:32:00,
2013-01-15 17:37:00,74.3,50.4,29.97,South,172,0.0,0.0,43,0.00,,---,0.00,VWS V14.01,2013-01-15 22:37:00,
2013-01-15 17:42:00,74.1,50.9,29.97,ESE,110,0.0,0.0,44,0.00,,---,0.00,VWS V14.01,2013-01-15 22:42:00,
2013-01-15 17:47:00,73.8,50.6,29.97,South,177,3.1,3.1,44,0.00,,---,0.00,VWS V14.01,2013-01-15 22:47:00,
2013-01-15 17:52:00,73.8,50.6,29.97,SSE,160,0.0,2.7,44,0.00,,---,0.00,VWS V14.01,2013-01-15 22:52:00,
2013-01-15 17:57:00,73.4,50.2,29.97,SSE,162,0.0,0.0,44,0.00,,---,0.00,VWS V14.01,2013-01-15 22:57:00,
2013-01-15 18:02:00,73.2,50.7,29.97,SSE,162,0.0,0.0,45,0.00,,---,0.00,VWS V14.01,2013-01-15 23:02:00,
2013-01-15 18:07:00,72.9,51.0,29.97,SSE,162,0.0,0.0,46,0.00,,---,0.00,VWS V14.01,2013-01-15 23:07:00,
2013-01-15 18:12:00,72.7,50.8,29.97,SSE,162,0.0,0.0,46,0.00,,---,0.00,VWS V14.01,2013-01-15 23:12:00,
2013-01-15 18:17:00,72.3,51.1,29.97,SSE,162,0.0,0.0,47,0.00,,---,0.00,VWS V14.01,2013-01-15 23:17:00,
2013-01-15 18:22:00,72.1,52.1,29.97,SSE,162,0.0,0.0,49,0.00,,---,0.00,VWS V14.01,2013-01-15 23:22:00,
2013-01-15 18:27:00,72.1,52.1,29.97,SSE,162,0.0,0.0,49,0.00,,---,0.00,VWS V14.01,2013-01-15 23:27:00,
2013-01-15 18:32:00,72.1,52.1,29.97,SSE,164,0.0,0.0,49,0.00,,---,0.00,VWS V14.01,2013-01-15 23:32:00,
2013-01-15 18:37:00,72.0,52.0,29.97,SSE,164,0.0,0.0,49,0.00,,---,0.00,VWS V14.01,2013-01-15 23:37:00,
2013-01-15 18:42:00,71.8,51.8,29.97,SSE,164,0.0,0.0,49,0.00,,---,0.00,VWS V14.01,2013-01-15 23:42:00,
2013-01-15 18:47:00,71.8,52.4,29.97,SSE,158,3.6,3.6,50,0.00,,---,0.00,VWS V14.01,2013-01-15 23:47:00,
2013-01-15 18:52:00,71.6,51.6,29.97,SE,130,0.0,0.0,49,0.00,,---,0.00,VWS V14.01,2013-01-15 23:52:00,
2013-01-15 18:57:00,71.6,52.2,29.97,SE,143,4.0,4.0,50,0.00,,---,0.00,VWS V14.01,2013-01-15 23:57:00,
2013-01-15 19:02:00,71.6,51.6,29.97,SSE,158,3.1,4.0,49,0.00,,---,0.00,VWS V14.01,2013-01-16 00:02:00,
2013-01-15 19:07:00,71.4,52.0,29.97,SSE,164,0.0,2.7,50,0.00,,---,0.00,VWS V14.01,2013-01-16 00:07:00,
2013-01-15 19:12:00,71.4,52.0,29.97,South,169,4.0,4.0,50,0.00,,---,0.00,VWS V14.01,2013-01-16 00:12:00,
2013-01-15 19:17:00,71.2,51.9,29.97,SSE,153,0.0,0.0,50,0.00,,---,0.00,VWS V14.01,2013-01-16 00:17:00,
2013-01-15 19:22:00,71.2,51.9,29.97,SSE,159,0.0,0.0,50,0.00,,---,0.00,VWS V14.01,2013-01-16 00:22:00,
2013-01-15 19:27:00,71.2,51.9,29.97,SSE,159,0.0,0.0,50,0.00,,---,0.00,VWS V14.01,2013-01-16 00:27:00,
2013-01-15 19:32:00,71.1,51.7,29.97,SSE,163,2.2,3.6,50,0.00,,---,0.00,VWS V14.01,2013-01-16 00:32:00,
2013-01-15 19:37:00,71.1,52.3,29.97,SSE,168,2.7,2.7,51,0.00,,---,0.00,VWS V14.01,2013-01-16 00:37:00,
2013-01-15 19:42:00,71.1,51.7,29.97,South,169,0.0,0.0,50,0.00,,---,0.00,VWS V14.01,2013-01-16 00:42:00,
2013-01-15 19:47:00,71.1,51.7,29.97,SSE,159,0.0,0.0,50,0.00,,---,0.00,VWS V14.01,2013-01-16 00:47:00,
2013-01-15 19:52:00,71.1,51.7,29.97,SSE,159,0.0,0.0,50,0.00,,---,0.00,VWS V14.01,2013-01-16 00:52:00,
2013-01-15 19:57:00,70.9,51.5,29.97,SSE,165,2.7,4.0,50,0.00,,---,0.00,VWS V14.01,2013-01-16 00:57:00,
2013-01-15 20:02:00,70.9,51.5,29.97,South,175,0.0,0.0,50,0.00,,---,0.00,VWS V14.01,2013-01-16 01:02:00,
2013-01-15 20:07:00,70.7,51.9,29.97,South,175,2.7,3.6,51,0.00,,---,0.00,VWS V14.01,2013-01-16 01:07:00,
2013-01-15 20:12:00,70.5,51.8,29.97,South,172,0.0,0.0,51,0.00,,---,0.00,VWS V14.01,2013-01-16 01:12:00,
2013-01-15 20:17:00,70.3,52.7,29.97,SSE,147,0.0,2.7,54,0.00,,---,0.00,VWS V14.01,2013-01-16 01:17:00,
2013-01-15 20:22:00,70.2,52.5,29.97,SSE,167,0.0,0.0,54,0.00,,---,0.00,VWS V14.01,2013-01-16 01:22:00,
2013-01-15 20:27:00,70.0,52.9,29.97,South,177,0.0,0.0,55,0.00,,---,0.00,VWS V14.01,2013-01-16 01:27:00,
2013-01-15 20:32:00,70.0,53.4,29.97,SSE,163,0.0,0.0,56,0.00,,---,0.00,VWS V14.01,2013-01-16 01:32:00,
2013-01-15 20:37:00,70.0,53.4,29.97,SSE,162,0.0,0.0,56,0.00,,---,0.00,VWS V14.01,2013-01-16 01:37:00,
2013-01-15 20:42:00,70.0,53.9,29.97,SSE,159,2.2,4.9,57,0.00,,---,0.00,VWS V14.01,2013-01-16 01:42:00,
2013-01-15 20:47:00,70.0,53.9,29.97,South,170,0.0,3.6,57,0.00,,---,0.00,VWS V14.01,2013-01-16 01:47:00,
2013-01-15 20:52:00,70.0,53.4,29.97,SSE,158,2.2,4.9,56,0.00,,---,0.00,VWS V14.01,2013-01-16 01:52:00,
2013-01-15 20:58:00,70.0,53.9,29.97,SSE,159,0.0,3.6,57,0.00,,---,0.00,VWS V14.01,2013-01-16 01:58:00,
2013-01-15 21:03:00,70.2,54.1,29.97,SSE,151,2.2,3.1,57,0.00,,---,0.00,VWS V14.01,2013-01-16 02:03:00,
2013-01-15 21:08:00,70.2,54.1,29.97,South,174,0.0,3.1,57,0.00,,---,0.00,VWS V14.01,2013-01-16 02:08:00,
2013-01-15 21:13:00,70.2,54.1,29.97,SSE,157,3.1,3.6,57,0.00,,---,0.00,VWS V14.01,2013-01-16 02:13:00,
2013-01-15 21:18:00,70.2,54.1,29.97,SSE,160,4.9,4.9,57,0.00,,---,0.00,VWS V14.01,2013-01-16 02:18:00,
2013-01-15 21:23:00,70.2,54.1,29.97,South,170,2.2,2.7,57,0.00,,---,0.00,VWS V14.01,2013-01-16 02:23:00,
2013-01-15 21:28:00,70.3,54.3,29.97,SSE,167,0.0,3.6,57,0.00,,---,0.00,VWS V14.01,2013-01-16 02:28:00,
2013-01-15 21:33:00,70.3,54.3,29.97,South,179,3.6,3.6,57,0.00,,---,0.00,VWS V14.01,2013-01-16 02:33:00,
2013-01-15 21:38:00,70.3,54.3,29.97,SSE,153,4.9,6.3,57,0.00,,---,0.00,VWS V14.01,2013-01-16 02:38:00,
2013-01-15 21:43:00,70.5,53.9,29.97,South,172,5.8,8.7,56,0.00,,---,0.00,VWS V14.01,2013-01-16 02:43:00,
2013-01-15 21:48:00,70.7,54.1,29.97,SW,215,0.0,3.1,56,0.00,,---,0.00,VWS V14.01,2013-01-16 02:48:00,
2013-01-15 21:53:00,70.5,54.4,29.97,SW,229,3.6,6.3,57,0.00,,---,0.00,VWS V14.01,2013-01-16 02:53:00,
2013-01-15 21:58:00,70.5,54.4,29.97,South,181,4.9,6.3,57,0.00,,---,0.00,VWS V14.01,2013-01-16 02:58:00,
2013-01-15 22:03:00,70.5,54.4,29.97,South,179,3.1,5.8,57,0.00,,---,0.00,VWS V14.01,2013-01-16 03:03:00,
2013-01-15 22:08:00,70.3,54.8,29.97,South,184,5.4,5.8,58,0.00,,---,0.00,VWS V14.01,2013-01-16 03:08:00,
2013-01-15 22:13:00,70.3,54.8,29.97,SSE,168,2.7,4.9,58,0.00,,---,0.00,VWS V14.01,2013-01-16 03:13:00,
2013-01-15 22:18:00,70.3,55.3,29.97,SSW,192,3.1,4.0,59,0.00,,---,0.00,VWS V14.01,2013-01-16 03:18:00,
2013-01-15 22:23:00,70.2,54.6,29.97,South,174,3.6,3.6,58,0.00,,---,0.00,VWS V14.01,2013-01-16 03:23:00,
2013-01-15 22:28:00,70.2,55.1,29.97,South,179,5.4,5.4,59,0.00,,---,0.00,VWS V14.01,2013-01-16 03:28:00,
2013-01-15 22:33:00,70.2,55.1,29.97,SSW,198,6.7,6.7,59,0.00,,---,0.00,VWS V14.01,2013-01-16 03:33:00,
2013-01-15 22:38:00,70.2,55.1,29.97,SW,214,2.2,3.6,59,0.00,,---,0.00,VWS V14.01,2013-01-16 03:38:00,
2013-01-15 22:43:00,70.2,55.1,29.97,SSE,160,4.0,4.0,59,0.00,,---,0.00,VWS V14.01,2013-01-16 03:43:00,
2013-01-15 22:48:00,70.2,55.6,29.97,South,172,2.7,3.6,60,0.00,,---,0.00,VWS V14.01,2013-01-16 03:48:00,
2013-01-15 22:53:00,70.2,55.6,29.97,SSE,159,2.2,7.6,60,0.00,,---,0.00,VWS V14.01,2013-01-16 03:53:00,
2013-01-15 22:58:00,70.0,55.4,29.97,SSW,200,5.4,7.2,60,0.00,,---,0.00,VWS V14.01,2013-01-16 03:58:00,
2013-01-15 23:03:00,70.0,55.4,29.97,SSE,163,5.4,5.4,60,0.00,,---,0.00,VWS V14.01,2013-01-16 04:03:00,
2013-01-15 23:08:00,70.0,55.9,29.97,SSE,162,0.0,3.6,61,0.00,,---,0.00,VWS V14.01,2013-01-16 04:08:00,
2013-01-15 23:13:00,70.0,55.9,29.97,South,177,4.9,4.9,61,0.00,,---,0.00,VWS V14.01,2013-01-16 04:13:00,
2013-01-15 23:18:00,70.0,55.9,29.97,South,176,5.4,6.3,61,0.00,,---,0.00,VWS V14.01,2013-01-16 04:18:00,
2013-01-15 23:23:00,69.8,56.2,29.97,SSE,159,5.4,5.4,62,0.00,,---,0.00,VWS V14.01,2013-01-16 04:23:00,
2013-01-15 23:28:00,69.8,56.2,29.97,SSW,193,3.6,3.6,62,0.00,,---,0.00,VWS V14.01,2013-01-16 04:28:00,
2013-01-15 23:33:00,70.0,56.4,29.97,South,184,7.6,8.1,62,0.00,,---,0.00,VWS V14.01,2013-01-16 04:33:00,
2013-01-15 23:38:00,70.0,56.4,29.94,SSW,211,7.6,7.6,62,0.00,,---,0.00,VWS V14.01,2013-01-16 04:38:00,
2013-01-15 23:43:00,70.0,56.4,29.94,South,172,5.4,5.8,62,0.00,,---,0.00,VWS V14.01,2013-01-16 04:43:00,
2013-01-15 23:48:00,70.0,56.4,29.94,SSE,156,5.8,5.8,62,0.00,,---,0.00,VWS V14.01,2013-01-16 04:48:00,
2013-01-15 23:53:00,70.0,56.4,29.97,South,176,3.1,3.6,62,0.00,,---,0.00,VWS V14.01,2013-01-16 04:53:00,
2013-01-15 23:58:00,70.0,56.4,29.97,South,178,8.7,8.7,62,0.00,,---,0.00,VWS V14.01,2013-01-16 04:58:00,